• In Hungary
  • List of Countries
  • For 7 days
  • Water Temperature
  • Satellite Maps
  • Weather Map
  • News
  • Weather Widgets
  • user-avatar
    Login

    Hourly Weather Honholoy

    Today, 18 December, Monday

    Time Temperature Precipitation Wind Pressure Humidity
    00:00 -19°C° 0.1 mm 4 mps 696 mmHg 92%
    01:00 -18°C° 0 mm 3 mps 697 mmHg 92%
    02:00 -19°C° 0 mm 3 mps 697 mmHg 93%
    03:00 -21°C° 0 mm 3 mps 697 mmHg 94%
    04:00 -19°C° 0 mm 2 mps 697 mmHg 95%
    05:00 -20°C° 0 mm 2 mps 697 mmHg 96%
    06:00 -20°C° 0 mm 2 mps 697 mmHg 96%
    07:00 -20°C° 0 mm 2 mps 698 mmHg 96%
    08:00 -18°C° 0 mm 2 mps 698 mmHg 94%
    09:00 -17°C° 0 mm 2 mps 698 mmHg 92%
    10:00 -16°C° 0 mm 2 mps 698 mmHg 90%
    11:00 -14°C° 0 mm 2 mps 698 mmHg 87%
    12:00 -13°C° 0 mm 2 mps 698 mmHg 85%
    13:00 -13°C° 0 mm 3 mps 698 mmHg 82%
    14:00 -12°C° 0.1 mm 2 mps 697 mmHg 86%
    15:00 -13°C° 0.1 mm 2 mps 697 mmHg 90%
    16:00 -12°C° 0.1 mm 1 mps 696 mmHg 94%
    17:00 -14°C° 0.2 mm 2 mps 696 mmHg 94%
    18:00 -14°C° 0.2 mm 2 mps 696 mmHg 95%
    19:00 -14°C° 0 mm 3 mps 695 mmHg 95%
    20:00 -14°C° 0.3 mm 3 mps 695 mmHg 95%
    21:00 -14°C° 0.3 mm 3 mps 694 mmHg 95%
    22:00 -13°C° 0.3 mm 2 mps 694 mmHg 95%
    23:00 -13°C° 0.2 mm 3 mps 694 mmHg 95%

    Tomorrow, 19 December, Tuesday

    Time Temperature Precipitation Wind Pressure Humidity
    00:00 -13°C° 0.2 mm 3 mps 694 mmHg 95%
    01:00 -13°C° 0.2 mm 3 mps 694 mmHg 95%
    02:00 -13°C° 0.2 mm 3 mps 694 mmHg 95%
    03:00 -12°C° 0.2 mm 3 mps 693 mmHg 95%
    04:00 -12°C° 0.2 mm 3 mps 693 mmHg 95%
    05:00 -12°C° 0.2 mm 3 mps 693 mmHg 94%
    06:00 -12°C° 0.2 mm 3 mps 693 mmHg 94%
    07:00 -12°C° 0.2 mm 3 mps 693 mmHg 94%
    08:00 -11°C° 0.3 mm 4 mps 693 mmHg 93%
    09:00 -10°C° 0.3 mm 4 mps 693 mmHg 92%
    10:00 -11°C° 0.3 mm 5 mps 694 mmHg 91%
    11:00 -10°C° 0.5 mm 5 mps 694 mmHg 90%
    12:00 -10°C° 0.5 mm 5 mps 693 mmHg 90%
    13:00 -9°C° 0.5 mm 6 mps 693 mmHg 90%
    14:00 -10°C° 0.4 mm 5 mps 693 mmHg 89%
    15:00 -10°C° 0.4 mm 5 mps 694 mmHg 89%
    16:00 -10°C° 0.4 mm 5 mps 694 mmHg 89%
    17:00 -11°C° 0.2 mm 5 mps 694 mmHg 88%
    18:00 -11°C° 0.2 mm 5 mps 694 mmHg 88%
    19:00 -10°C° 0.2 mm 4 mps 694 mmHg 87%
    20:00 -10°C° 0.1 mm 4 mps 694 mmHg 85%
    21:00 -10°C° 0.1 mm 4 mps 694 mmHg 82%
    22:00 -10°C° 0.1 mm 4 mps 694 mmHg 79%
    23:00 -11°C° 0 mm 4 mps 694 mmHg 79%

    Day after tomorrow, 20 December, Wednesday

    Time Temperature Precipitation Wind Pressure Humidity
    00:00 -12°C° 0 mm 4 mps 694 mmHg 79%
    01:00 -13°C° 0 mm 3 mps 694 mmHg 79%
    02:00 -13°C° 0 mm 3 mps 694 mmHg 78%
    03:00 -14°C° 0 mm 3 mps 694 mmHg 78%
    04:00 -14°C° 0 mm 3 mps 694 mmHg 77%
    05:00 -15°C° 0 mm 3 mps 694 mmHg 77%
    06:00 -15°C° 0 mm 3 mps 694 mmHg 77%
    07:00 -15°C° 0 mm 2 mps 694 mmHg 76%
    08:00 -14°C° 0 mm 2 mps 694 mmHg 74%
    09:00 -13°C° 0 mm 2 mps 694 mmHg 73%
    10:00 -12°C° 0 mm 2 mps 694 mmHg 71%
    11:00 -10°C° 0 mm 2 mps 693 mmHg 71%
    12:00 -9°C° 0 mm 2 mps 693 mmHg 70%
    13:00 -8°C° 0 mm 2 mps 692 mmHg 70%
    14:00 -10°C° 0 mm 2 mps 692 mmHg 74%
    15:00 -13°C° 0 mm 2 mps 691 mmHg 78%
    16:00 -14°C° 0 mm 2 mps 691 mmHg 82%
    17:00 -15°C° 0 mm 2 mps 691 mmHg 82%
    18:00 -16°C° 0 mm 2 mps 691 mmHg 82%
    19:00 -16°C° 0 mm 2 mps 691 mmHg 82%
    20:00 -17°C° 0 mm 2 mps 691 mmHg 82%
    21:00 -17°C° 0 mm 2 mps 691 mmHg 82%
    22:00 -17°C° 0 mm 2 mps 691 mmHg 82%
    23:00 -17°C° 0 mm 2 mps 691 mmHg 82%

    21 December, Thursday

    Time Temperature Precipitation Wind Pressure Humidity
    00:00 -18°C° 0 mm 2 mps 691 mmHg 82%
    01:00 -16°C° 0 mm 1 mps 691 mmHg 82%
    02:00 -16°C° 0 mm 1 mps 691 mmHg 82%
    03:00 -16°C° 0 mm 1 mps 691 mmHg 83%
    04:00 -16°C° 0 mm 1 mps 691 mmHg 83%
    05:00 -17°C° 0 mm 1 mps 691 mmHg 83%
    06:00 -17°C° 0 mm 1 mps 691 mmHg 82%
    07:00 -17°C° 0 mm 1 mps 691 mmHg 82%
    08:00 -16°C° 0 mm 1 mps 691 mmHg 81%
    09:00 -15°C° 0 mm 1 mps 692 mmHg 80%
    10:00 -13°C° 0 mm 1 mps 692 mmHg 79%
    11:00 -12°C° 0 mm 1 mps 692 mmHg 78%
    12:00 -11°C° 0 mm 1 mps 691 mmHg 78%
    13:00 -10°C° 0 mm 1 mps 691 mmHg 77%
    14:00 -11°C° 0 mm 1 mps 691 mmHg 80%
    15:00 -13°C° 0 mm 1 mps 691 mmHg 83%
    16:00 -14°C° 0 mm 1 mps 691 mmHg 86%
    17:00 -15°C° 0 mm 1 mps 691 mmHg 86%
    18:00 -16°C° 0 mm 1 mps 691 mmHg 85%
    19:00 -16°C° 0 mm 1 mps 691 mmHg 85%
    20:00 -17°C° 0 mm 1 mps 691 mmHg 86%
    21:00 -17°C° 0 mm 1 mps 691 mmHg 86%
    22:00 -17°C° 0 mm 1 mps 692 mmHg 86%
    23:00 -17°C° 0 mm 1 mps 691 mmHg 86%

    22 December, Friday

    Time Temperature Precipitation Wind Pressure Humidity
    00:00 -17°C° 0 mm 1 mps 691 mmHg 86%
    01:00 -18°C° 0 mm 1 mps 691 mmHg 86%
    02:00 -17°C° 0 mm 1 mps 691 mmHg 86%
    03:00 -17°C° 0 mm 1 mps 691 mmHg 86%
    04:00 -17°C° 0 mm 1 mps 691 mmHg 86%
    05:00 -17°C° 0 mm 1 mps 692 mmHg 86%
    06:00 -16°C° 0 mm 1 mps 692 mmHg 86%
    07:00 -16°C° 0 mm 1 mps 692 mmHg 86%
    08:00 -15°C° 0 mm 1 mps 692 mmHg 85%
    09:00 -14°C° 0 mm 1 mps 692 mmHg 85%
    10:00 -13°C° 0 mm 1 mps 693 mmHg 84%
    11:00 -12°C° 0 mm 1 mps 692 mmHg 83%
    12:00 -11°C° 0 mm 1 mps 692 mmHg 82%
    13:00 -10°C° 0 mm 1 mps 692 mmHg 82%
    14:00 -12°C° 0 mm 1 mps 691 mmHg 85%
    15:00 -13°C° 0 mm 1 mps 691 mmHg 88%
    16:00 -15°C° 0 mm 1 mps 691 mmHg 91%
    17:00 -15°C° 0 mm 1 mps 691 mmHg 91%
    18:00 -16°C° 0 mm 1 mps 691 mmHg 91%
    19:00 -16°C° 0 mm 1 mps 691 mmHg 91%
    20:00 -16°C° 0 mm 1 mps 691 mmHg 92%
    21:00 -16°C° 0 mm 1 mps 690 mmHg 92%
    22:00 -16°C° 0 mm 1 mps 690 mmHg 92%
    23:00 -16°C° 0 mm 1 mps 690 mmHg 92%

    23 December, Saturday

    Time Temperature Precipitation Wind Pressure Humidity
    00:00 -16°C° 0 mm 1 mps 690 mmHg 92%
    01:00 -16°C° 0 mm 1 mps 689 mmHg 92%
    02:00 -16°C° 0.1 mm 1 mps 689 mmHg 93%
    03:00 -18°C° 0.1 mm 2 mps 689 mmHg 94%
    04:00 -18°C° 0.1 mm 2 mps 689 mmHg 94%
    05:00 -18°C° 0.1 mm 2 mps 689 mmHg 95%
    06:00 -17°C° 0.1 mm 2 mps 689 mmHg 95%
    07:00 -17°C° 0.1 mm 2 mps 689 mmHg 95%
    08:00 -16°C° 0.1 mm 2 mps 689 mmHg 94%
    09:00 -15°C° 0.1 mm 2 mps 689 mmHg 93%
    10:00 -16°C° 0.1 mm 3 mps 689 mmHg 92%
    11:00 -16°C° 0.2 mm 4 mps 690 mmHg 90%
    12:00 -15°C° 0.2 mm 5 mps 690 mmHg 88%
    13:00 -15°C° 0.2 mm 6 mps 690 mmHg 86%
    14:00 -17°C° 0.1 mm 6 mps 691 mmHg 86%
    15:00 -18°C° 0.1 mm 5 mps 691 mmHg 87%
    16:00 -19°C° 0.1 mm 5 mps 692 mmHg 87%
    17:00 -19°C° 0 mm 4 mps 692 mmHg 89%
    18:00 -20°C° 0 mm 4 mps 693 mmHg 91%
    19:00 -21°C° 0 mm 3 mps 694 mmHg 93%
    20:00 -22°C° 0 mm 3 mps 694 mmHg 94%
    21:00 -23°C° 0 mm 3 mps 694 mmHg 95%
    22:00 -23°C° 0 mm 2 mps 694 mmHg 96%
    23:00 -23°C° 0 mm 2 mps 695 mmHg 96%
    Show more